STARLINK-34558, 64721

Orbit data source: Space-Track

STARLINK-34558, 64721 is a payload satellite owned by SpaceX/Seattle (US) in LEO that was launched on Sat, 28 Jun 2025 UTC via an FALCON 9 launch vehicle from the Air Force Western Test Range (AFWTR). Payload-class satellites include a variety of spacecraft equipped with specific instruments for various scientific and technological missions. These include communications satellites like Starlink; space stations such as the ISS; scientific satellites like the Hubble; Earth observation satellites from companies like Planet Labs, Umbra, and HawkEye 360; GPS; miniature CubeSats for education and research; and military/defense satellites.

Loading next visibility...
Identifier
64721, 2025-142AB
Orbit
LEO
Country
Flag of USUS
Related business
Manufacturer
SpaceX/Seattle
Mission
Operational Commercial Communications
Bus & Motor
STARLINK V2MO, Unknown motor
Mass
575 kg wet, ~530 kg dry
Launch date (UTC)
2025-06-28 (11 months ago)
Launch vehicle
FALCON 9
Launch site
Air Force Western Test Range (AFWTR)
Object type
Payload
Rocket body
Debris
Shape & HBR
Box + 2 Pan, 17.7 m
Radar Cross Section
36.964 m², Large (>1 m²)

Expand to show TLE details & history
Last TLE update: 10 hours ago

TLE from 10 hours ago
0 STARLINK-34558
1 64721U 25142AB  26145.35062794  .00002451  00000-0  21313-3 0  9993
2 64721  70.0002 121.1683 0003415 266.2263  93.8506 14.98336168 50941
Epoch: 2026-05-25T08:24Z
TLE epoch observation values (Epoch: 2026-05-25T08:24:54.254Z)
Latitude
0.00004°
Longitude
112.00258°
Altitude
574.621 km
Speed
7.574 km/s
True Right ascension
08h 04m 40s
True Declination
0° 00' 00"
Sunlit
Object was in daylight at epoch
Visualization orbit readout
Latitude
Unknown
Longitude
Unknown
Altitude
Unknown
Speed
Unknown
Apparent Right ascension
Unknown
Apparent Declination
Unknown
Sunlit
N/A
Visualization observer readout
Local Sidereal Time
03:58:44
Azimuth
Unknown
Elevation
Unknown
Doppler factor
Unknown
Orbital elements
Apogee altitude
572.358 km
Perigee altitude
567.612 km
Semi-major axis
6,948.122 km
Eccentricity
0.00034
Inclination
70.0002°
RAAN
121.1683°
Arg. of periapsis
266.2263°
True anomaly
93.88964°
Mean anomaly
93.8506°
Eccentric anomaly
93.87012°
Mean motion
3.7475 °/min
Orbital period
96.06 mins
BSTAR
0.00021313
Loading maneuver chart data...
Computing Atmospheric mass density...
Loading historical data...
Loading historical data...
Loading historical data...
Loading historical data...
Loading historical data...
Loading historical data...
Loading historical data...

Documentation

Showing up to 5 results
|